O3B FM16 (43232 NORAD) Tracking and Keplerian Element Data

This shows tracking and keplerian element data for the satellite.

Feedback or suggestion? Click here.




ElementValue
Catalog43232
NameO3B FM16
Epoch Orbit801
Epoch Day228.50605651
Epoch Year2018
RAAN354.9256
Inclination0.0437
Eccentricity0.0002917
Argument of Perigee155.8423
Mean Anonmoly209.2455
Mean Motion5.00116333
Decay Rate-3.1E-07
L11 43232U 18024B 18228.50605651 -.00000031 00000-0 00000-0 0 9993
L22 43232 0.0437 354.9256 0002917 155.8423 209.2455 5.00116333 8019

Live tracking and technical data element details for O3B FM16 (NORAD 43232). O3B FM16 can be tracked NOW for your location showing map with azimuth and elevation plus other details from your city location.

Track the satellite on the map from your city or location and see movement details for azimuth, elevation, latitude, longitude, range, height, and movement on the map or in text.







IsCatalogInMostPopularTable: catalog: 43232, numindb: 43
Update: records affected: 1



GetName: 43232 O3B FM16

Hit Count: updated at: Fri, 17 Aug 2018 13:19:42 GMT